SB KEPS @ AMSAT $ORB11300.N 2Line Orbital Elements 11300.AMSAT
HR AMSAT ORBITAL ELEMENTS FOR AMATEUR SATELLITES IN NASA FORMAT FROM WA5QGD FORT WORTH,TX October 27, 2011 Send Subscribe/unsubscribe to KEPS at http://www.amsat.org/mailman/listinfo/keps BID: ORB11300.N
DECODE 2-LINE ELSETS WITH THE FOLLOWING KEY: 1 AAAAAU 00 0 0 BBBBB.BBBBBBBB .CCCCCCCC 00000-0 00000-0 0 DDDZ 2 AAAAA EEE.EEEE FFF.FFFF GGGGGGG HHH.HHHH III.IIII JJ.JJJJJJJJKKKKKZ KEY: A-CATALOGNUM B-EPOCHTIME C-DECAY D-ELSETNUM E-INCLINATION F-RAAN G-ECCENTRICITY H-ARGPERIGEE I-MNANOM J-MNMOTION K-ORBITNUM Z-CHECKSUM
TO ALL RADIO AMATEURS BT
AO-07 1 07530U 74089B 11300.63396314 -.00000027 00000-0 10000-3 0 2158 2 07530 101.3976 301.9659 0011916 021.2000 338.9562 12.53584769690786 FO-29 1 24278U 96046B 11299.90964725 -.00000013 00000-0 26587-4 0 6930 2 24278 098.5667 066.4133 0349730 275.9906 080.1487 13.52966838750273 SO-33 1 25509U 98061B 11300.18142187 .00001156 00000-0 21786-3 0 858 2 25509 031.4363 217.7238 0353534 315.8988 041.3977 14.28483072679167 RS-22 1 27939U 03042A 11300.71260478 .00001382 00000-0 27374-3 0 7560 2 27939 097.8276 148.2725 0012529 288.0158 071.9682 14.63708628431726 VO-52 1 28650U 05017B 11300.55065171 .00003087 00000-0 38983-3 0 9340 2 28650 097.6280 337.6668 0027967 087.8015 272.6408 14.82310962350355 SO-67 1 35870U 09049F 11300.89108796 .00006783 00000-0 30392-3 0 3525 2 35870 097.2656 339.7585 0000552 289.1564 064.9634 15.21552378117108 HO-68 1 36122U 09072B 11300.72027981 -.00000044 00000-0 00000 0 0 8697 2 36122 100.3994 359.4292 0007199 283.1064 076.9242 13.16289364 89679 UO-11 1 14781U 84021B 11300.37917893 .00001373 00000-0 18794-3 0 6902 2 14781 097.9891 356.5597 0010074 072.3352 287.8958 14.80106700485348 AO-16 1 20439U 90005D 11299.87743610 .00000300 00000-0 12764-3 0 3114 2 20439 098.3992 245.1885 0011419 129.4742 230.7453 14.31958974136463 LO-19 1 20442U 90005G 11300.84460457 .00000340 00000-0 14156-3 0 2326 2 20442 098.3646 249.9765 0012595 120.4880 239.7551 14.32183104136781 AO-27 1 22825U 93061C 11299.82280215 .00000182 00000-0 88251-4 0 9469 2 22825 098.5439 241.6430 0007607 247.6167 112.4219 14.29380365942996 IO-26 1 22826U 93061D 11300.00796645 .00000295 00000-0 13218-3 0 6914 2 22826 098.5390 242.2582 0008051 241.9026 118.1340 14.29646374943144 GO-32 1 25397U 98043D 11300.57483671 .00000176 00000-0 95786-4 0 6143 2 25397 098.3390 286.1378 0000510 206.1035 154.0123 14.23229022690792 NO-44 1 26931U 01043C 11300.67909532 .00000535 00000-0 24066-3 0 8820 2 26931 067.0550 002.1245 0004873 261.0863 098.9690 14.29702256525863 SO-50 1 27607U 02058C 11300.35888515 .00002307 00000-0 36980-3 0 5992 2 27607 064.5582 285.9979 0082268 293.8470 065.4010 14.71916198475540 CO-55 1 27844U 03031E 11299.58194834 .00000694 00000-0 34076-3 0 2294 2 27844 098.7064 306.3870 0009695 175.6729 184.4515 14.20873056431578 CO-57 1 27848U 03031J 11299.54599936 .00000612 00000-0 30463-3 0 1752 2 27848 098.7118 305.5872 0009544 180.5586 179.5617 14.20645651431514 AO-51 1 28375U 04025K 11300.13080702 .00000328 00000-0 11097-3 0 1055 2 28375 098.1146 271.7547 0084898 030.3227 330.2848 14.40805458385062 CP3 1 31129U 07012N 11299.99622832 .00001672 00000-0 39144-3 0 35 2 31129 097.8934 316.5563 0102431 130.9452 230.0669 14.52635262239974 CO-65 1 32785U 08021C 11299.72864407 .00002766 00000-0 35224-3 0 1336 2 32785 097.8358 001.0097 0016000 105.9016 254.3990 14.82265047189024 PRISM 1 33493U 09002B 11300.70569380 .00005105 00000-0 64428-3 0 928 2 33493 098.1416 071.4205 0018913 335.1324 024.8961 14.82257794149143 SOHLA-1 1 33496U 09002E 11300.20149128 .00000997 00000-0 17552-3 0 5532 2 33496 098.0901 048.7753 0007629 067.9985 292.2031 14.69714337147877 TISAT-1 1 36799U 10035E 11300.72267090 .00003115 00000-0 40915-3 0 3627 2 36799 098.0894 010.2136 0014841 205.0432 154.9981 14.80925005 69928 STUDSAT 1 36801U 10035G 11300.30150113 .00011067 00000-0 14127-2 0 2654 2 36801 098.0927 009.7666 0013273 195.9717 164.1078 14.81561809 69852 OOREOS 1 37224U 10062C 11283.12196780 .00000955 00000-0 14226-3 0 03021 2 37224 071.9656 145.3580 0018647 057.9354 302.3616 14.77183931047847 FO-69 1 37227U 0 11298.39961576 .00001486 00000-0 21963-3 0 00082 2 37227 071.9664 112.1333 0015927 034.6766 325.5479 14.76710336001280 NANOSALD 1 37361U 0 11242.25215765 .00180112 00000-0 75811-2 0 03512 2 37361 071.9735 221.4469 0025730 245.3422 114.7284 15.22200108033319 FO-70 1 37380U 0 11298.43402580 .00001549 00000-0 22971-3 0 00082 2 37380 071.9713 112.3243 0016683 031.7370 328.4848 14.76473112001185 NOAA-10 1 16969U 86073A 11300.68687433 .00000281 00000-0 13209-3 0 6823 2 16969 098.6089 328.6015 0011931 194.4153 165.6688 14.27490225306555 NOAA-11 1 19531U 88089A 11300.29584479 .00000288 00000-0 17154-3 0 6799 2 19531 098.7484 025.2274 0011215 167.8466 192.3004 14.14932367191438 NOAA-12 1 21263U 91032A 11300.87072987 .00000200 00000-0 10358-3 0 1761 2 21263 098.7460 318.4443 0013964 155.5228 204.6617 14.25448498 63316 MET-3/5 1 21655U 91056A 11300.54692894 .00000051 00000-0 10000-3 0 2445 2 21655 082.5569 317.2595 0013296 180.6498 179.4624 13.17034530971147 MET-2/21 1 22782U 93055A 11300.73339274 .00000086 00000-0 63793-4 0 2401 2 22782 082.5498 217.7114 0024068 087.0161 273.3779 13.83666970916884 OKEAN-4 1 23317U 94066A 11300.19562537 .00002566 00000-0 30959-3 0 7046 2 23317 082.5380 249.8518 0023549 046.7788 313.5389 14.83260117920112 NOAA-14 1 23455U 94089A 11300.86972550 .00000041 00000-0 45053-4 0 6562 2 23455 098.8455 022.1365 0008618 263.2844 096.7347 14.13842177867826 NOAA-15 1 25338U 98030A 11300.52608191 .00000277 00000-0 13721-3 0 9979 2 25338 098.6682 284.9494 0011576 069.6318 290.6099 14.24970523699573 RESURS 1 25394U 98043A 11299.90233033 .00000105 00000-0 63172-4 0 9261 2 25394 098.3054 295.7122 0000907 166.0070 194.1136 14.24247782691055 FENGYUN1 1 25730U 99025A 11300.84383201 .00002965 00000-0 17331-2 0 4552 2 25730 098.8279 259.2084 0023739 308.6953 051.2099 14.08966703641742 OKEAN-0 1 25860U 99039A 11300.00741695 .00001076 00000-0 17159-3 0 4498 2 25860 097.9025 262.9588 0000705 036.3613 323.7644 14.73898621660076 NOAA-16 1 26536U 00055A 11300.52641768 .00000179 00000-0 12166-3 0 4795 2 26536 099.1280 333.6790 0010810 024.9635 335.2082 14.12658463572044 NOAA-17 1 27453U 02032A 11300.52689686 .00000346 00000-0 16738-3 0 4630 2 27453 098.3659 334.0694 0012560 119.5027 240.7412 14.24334344485493 NOAA-18 1 28654U 05018A 11300.86877484 .00000326 00000-0 20413-3 0 9417 2 28654 099.0126 252.4429 0015118 090.7318 269.5612 14.11536019331645 NOAA-19 1 33591U 09005A 11300.75356753 .00000498 00000-0 29991-3 0 1324 2 33591 098.8381 238.7442 0013820 324.5377 035.4889 14.11227675140081 HUBBLE 1 20580U 90037B 11296.20596250 .00003035 00000-0 21550-3 0 08572 2 20580 028.4706 260.0600 0003211 045.9963 314.0958 15.01667302978916 ISS 1 25544U 98067A 11300.76416444 .00045603 00000-0 56230-3 0 3240 2 25544 051.6399 213.3840 0021869 353.4471 006.6750 15.59215888145678 CO-58 1 28895U 05043F 11300.18444894 .00001457 00000-0 31049-3 0 89 2 28895 097.9449 171.3263 0018051 163.5275 196.6523 14.60248301319502 FALCON 1 30776U 07006E 11299.33733500 .00008032 00000-0 55119-3 0 2015 2 30776 035.4297 269.2199 0001322 152.0089 208.0698 15.05379878254812 MAST 1 31126U 07012K 11300.11393460 .00001225 00000-0 28462-3 0 2937 2 31126 097.8875 319.8364 0094983 119.5430 241.5283 14.53855200240250 CAPE1 1 31130U 07012P 11299.60201993 .00001605 00000-0 37665-3 0 3053 2 31130 097.8926 315.9397 0102854 132.7372 228.2534 14.52531080239710 COMPASS 1 32787U 08021E 11300.69617527 .00005291 00000-0 65807-3 0 1286 2 32787 097.8350 001.9606 0016550 103.5664 256.7313 14.82852645189195 AAUSAT2 1 32788U 08021F 11300.37241092 .00005430 00000-0 67171-3 0 1193 2 32788 097.8371 001.9130 0016493 105.4767 254.8258 14.83067650189161 DO-64 1 32789U 08021G 11300.26484070 .00008687 00000-0 10519-2 0 1333 2 32789 097.8433 003.0857 0016042 103.1239 257.1849 14.83791745189160 CO-66 1 32791U 08021J 11300.20268867 .00004252 00000-0 53501-3 0 1225 2 32791 097.8356 001.3691 0017024 103.8279 256.4915 14.82466124189060 RS-30 1 32953U 08025A 11300.79308112 .00000010 00000-0 00000 0 0 2064 2 32953 082.4989 080.2724 0019724 097.3987 262.9339 12.43016334155566 TACSAT-3 1 35001U 09028A 11300.78670027 .00068615 00000-0 94555-3 0 7388 2 35001 040.4509 084.5399 0013526 113.6776 246.5462 15.56140989137681 PHARMSAT 1 35002U 09028B 11299.80268851 .00056248 00000-0 83742-3 0 6864 2 35002 040.4678 089.6063 0017050 121.5531 238.6959 15.54047739137541 HAWKSAT1 1 35003U 09028C 11278.76493853 .05638703 71200-5 11831-2 0 08211 2 35003 040.4370 161.0594 0006849 275.9761 084.3784 16.29831142134897 CP6 1 35004U 09028D 11247.64656856 .16152067 73217-5 10011-2 0 7842 2 35004 040.4403 342.9642 0002956 038.0069 322.2231 16.41039951130139 METEOR-M 1 35865U 09049A 11300.80098675 -.00000232 00000-0 -85335-4 0 8487 2 35865 098.6887 354.1003 0002833 025.2804 334.8482 14.21842687109430 RS-38 1 35869U 09049E 11300.64368225 .00000072 00000-0 52156-4 0 8298 2 35869 098.6857 353.9721 0004725 018.9149 341.2257 14.22028158109429 ARISSAT1 1 37772U 98067CK 11300.84435693 .00122504 00000-0 94502-3 0 2599 2 37772 051.6363 210.7447 0006024 037.5762 035.4526 15.71038535 13231 SRMSAT 1 37839U 11058B 11299.48462964 .00000619 00000-0 19019-3 0 158 2 37839 019.9601 340.0068 0019273 159.8666 200.2514 14.11976560 2031 JUGNU 1 37841U 11058D 11300.42378725 .00000264 00000-0 00000 0 0 139 2 37841 019.9725 334.6188 0011863 145.1953 214.9268 14.10079233 2158 /EX